sat.trackr.live / text

‹ back to catalog

STARLINK-3194

NORAD 49758 · 2021-115AL

PAYLOAD ACTIVE UNKNOWN

§ Identity

Operator
Country
US
Launch date
2021-12-02
Launch site
AFETR
Launch vehicle
Mass (kg)
RCS (m²)

Purposes: comms

External: N2YO · Heavens-Above · Gunter

§ Orbital elements

Epoch: 2026-05-25T00:04:20.273088Z

Period
95.44 min
Inclination
53.2139°
Eccentricity
0.0001242
Mean motion
15.08833984 rev/d
Perigee alt
538.9 km
Apogee alt
540.6 km
Semi-major
6,917.9 km
B*
-1.3380e-6
RAAN
156.5367°
Arg perigee
89.6783°
Mean anomaly
270.4351°
Rev number
24,719

§ Raw data

STARLINK-31941 49758U 21115AL  26145.00301242 -.00000309  00000+0 -13380-5 0  99962 49758  53.2139 156.5367 0001242  89.6783 270.4351 15.08833984247195

JSON: /api/v1/satellites/49758 · /tle

For live sub-satellite position, see the globe view (requires WebGL).

§ Visibility from observer

Set your observer location to see the next 7 days of passes ≥ 10°. The values pass through the URL so the page stays shareable.

No JS? Fill the form by hand. The geolocation button needs JavaScript.